2010-07-15, 01:00:05,VALID,6.40424,VALID,90,VALID,-22.9492,VALID,0.0377667,VALID,20.3464,
2010-07-15, 07:00:04,VALID,915.07,VALID,0,VALID,97.4959,VALID,49.6378,VALID,19.4298,VALID,54,VALID,0.576563,
2010-07-15, 07:01:04,VALID,915.085,VALID,0,VALID,97.5264,VALID,58.3405,VALID,19.4493,VALID,54,VALID,0.633594,
2010-07-15, 07:02:04,VALID,915.081,VALID,0,VALID,97.5492,VALID,66.8284,VALID,19.4688,VALID,54,VALID,0.666797,
2010-07-15, 07:03:04,VALID,915.081,VALID,0,VALID,97.5264,VALID,60.2745,VALID,19.4883,VALID,54,VALID,0.455859,
2010-07-15, 07:04:04,VALID,915.065,VALID,0,VALID,97.5187,VALID,58.0182,VALID,19.4883,VALID,54,VALID,0.547656,
2010-07-15, 07:05:04,VALID,915.073,VALID,0,VALID,97.5111,VALID,59.9522,VALID,19.4883,VALID,54,VALID,0.746484,
2010-07-15, 07:06:04,VALID,915.034,VALID,0,VALID,97.5264,VALID,57.6959,VALID,19.5078,VALID,54,VALID,0.431641,
2010-07-15, 07:07:04,VALID,915.053,VALID,0,VALID,97.5187,VALID,64.8945,VALID,19.5063,VALID,54,VALID,0.354688,
2010-07-15, 07:08:04,VALID,915.044,VALID,0,VALID,97.5111,VALID,51.4643,VALID,19.5063,VALID,54,VALID,0.537891,
2010-07-15, 07:09:04,VALID,915.071,VALID,0,VALID,97.5111,VALID,46.9518,VALID,19.4868,VALID,54,VALID,0.478906,
2010-07-15, 07:10:04,VALID,915.099,VALID,0,VALID,97.5187,VALID,51.2494,VALID,19.4868,VALID,54,VALID,0.900781,
2010-07-15, 07:11:04,VALID,915.09,VALID,0,VALID,97.5111,VALID,48.0262,VALID,19.4673,VALID,54,VALID,0.603125,
2010-07-15, 07:12:04,VALID,915.084,VALID,0,VALID,97.5035,VALID,45.555,VALID,19.4673,VALID,54,VALID,0.699219,
2010-07-15, 07:13:04,VALID,915.083,VALID,0,VALID,97.534,VALID,46.522,VALID,19.5078,VALID,54,VALID,0.264453,
2010-07-15, 07:14:04,VALID,915.107,VALID,0,VALID,97.5187,VALID,53.3983,VALID,19.4868,VALID,54,VALID,0.940234,
2010-07-15, 07:15:04,VALID,915.098,VALID,0,VALID,97.5111,VALID,59.6298,VALID,19.5063,VALID,54,VALID,0.471484,
2010-07-15, 07:16:04,VALID,915.087,VALID,0,VALID,97.5264,VALID,63.9275,VALID,19.5273,VALID,54,VALID,0.441016,
2010-07-15, 07:17:04,VALID,915.1,VALID,0,VALID,97.5187,VALID,64.2498,VALID,19.5468,VALID,54,VALID,0.642578,
2010-07-15, 07:18:04,VALID,915.088,VALID,0,VALID,97.4959,VALID,53.9355,VALID,19.5258,VALID,54,VALID,0.487109,
2010-07-15, 07:19:04,VALID,915.086,VALID,0,VALID,97.534,VALID,54.6875,VALID,19.5858,VALID,54,VALID,0.396094,
2010-07-15, 07:20:04,VALID,915.078,VALID,0,VALID,97.534,VALID,62.7456,VALID,19.6248,VALID,54,VALID,0.660937,
2010-07-15, 07:21:04,VALID,915.096,VALID,0,VALID,97.5264,VALID,84.019,VALID,19.6053,VALID,54,VALID,0.894922,
2010-07-15, 07:22:04,VALID,915.111,VALID,0,VALID,97.534,VALID,96.9119,VALID,19.6038,VALID,54,VALID,0.760938,
2010-07-15, 07:23:04,VALID,915.123,VALID,0,VALID,97.534,VALID,89.7134,VALID,19.5843,VALID,54,VALID,1.05273,
2010-07-15, 07:24:04,VALID,915.12,VALID,0,VALID,97.5492,VALID,108.945,VALID,19.6443,VALID,54,VALID,0.3875,
2010-07-15, 07:25:04,VALID,915.096,VALID,0,VALID,97.5416,VALID,118.937,VALID,19.7223,VALID,54,VALID,0.442969,
2010-07-15, 07:26:04,VALID,915.104,VALID,0,VALID,97.5111,VALID,132.045,VALID,19.7028,VALID,54,VALID,1.11836,
2010-07-15, 07:27:04,VALID,915.126,VALID,0,VALID,97.534,VALID,117.541,VALID,19.7028,VALID,54,VALID,0.677734,
2010-07-15, 07:28:04,VALID,915.125,VALID,0,VALID,97.534,VALID,127.64,VALID,19.7403,VALID,54,VALID,0.904297,
2010-07-15, 07:29:04,VALID,915.101,VALID,0,VALID,97.5264,VALID,144.616,VALID,19.8378,VALID,54,VALID,0.764844,
2010-07-15, 07:30:04,VALID,915.106,VALID,0,VALID,97.5264,VALID,153.319,VALID,19.8183,VALID,54,VALID,1.02891,
2010-07-15, 07:31:04,VALID,915.109,VALID,0,VALID,97.5035,VALID,160.087,VALID,19.8573,VALID,54,VALID,0.802344,
2010-07-15, 07:32:04,VALID,915.112,VALID,0,VALID,97.5035,VALID,160.839,VALID,19.8183,VALID,54,VALID,1.29219,
2010-07-15, 07:33:04,VALID,915.124,VALID,0,VALID,97.4959,VALID,215.849,VALID,19.8378,VALID,54,VALID,1.07422,
2010-07-15, 07:34:04,VALID,915.141,VALID,0,VALID,97.5035,VALID,215.742,VALID,19.8378,VALID,54,VALID,1.08672,
2010-07-15, 07:35:04,VALID,915.153,VALID,0,VALID,97.5187,VALID,181.898,VALID,19.8768,VALID,54,VALID,0.393359,
2010-07-15, 07:36:04,VALID,915.138,VALID,0,VALID,97.4959,VALID,177.923,VALID,19.9353,VALID,55,VALID,0.742578,
2010-07-15, 07:37:04,VALID,915.128,VALID,0,VALID,97.4882,VALID,195.435,VALID,20.0898,VALID,55,VALID,0.727734,
2010-07-15, 07:38:04,VALID,915.126,VALID,0,VALID,97.4654,VALID,188.344,VALID,20.2278,VALID,54,VALID,1.02617,
2010-07-15, 07:39:04,VALID,915.115,VALID,0,VALID,97.4654,VALID,178.137,VALID,20.1303,VALID,54,VALID,0.845703,
2010-07-15, 07:40:04,VALID,915.11,VALID,0,VALID,97.4806,VALID,193.716,VALID,20.1498,VALID,54,VALID,0.738672,
2010-07-15, 07:41:04,VALID,915.107,VALID,0,VALID,97.4501,VALID,201.667,VALID,20.1093,VALID,54,VALID,0.435156,
2010-07-15, 07:42:04,VALID,915.118,VALID,0,VALID,97.4425,VALID,208.436,VALID,20.1303,VALID,54,VALID,0.744141,
2010-07-15, 07:43:04,VALID,915.1,VALID,0,VALID,97.4425,VALID,213.163,VALID,20.2263,VALID,54,VALID,0.697266,
2010-07-15, 07:44:04,VALID,915.129,VALID,0,VALID,97.4044,VALID,208.006,VALID,20.2863,VALID,54,VALID,0.574609,
2010-07-15, 07:45:04,VALID,915.129,VALID,0,VALID,97.3968,VALID,210.8,VALID,20.3043,VALID,54,VALID,0.876562,
2010-07-15, 07:46:04,VALID,915.17,VALID,0,VALID,97.3815,VALID,220.039,VALID,20.3448,VALID,54,VALID,0.649609,
2010-07-15, 07:47:04,VALID,915.191,VALID,0,VALID,97.3663,VALID,226.486,VALID,20.4049,VALID,55,VALID,0.795313,
2010-07-15, 07:48:04,VALID,915.197,VALID,0,VALID,97.3739,VALID,227.345,VALID,20.4618,VALID,55,VALID,0.855078,
2010-07-15, 07:49:04,VALID,915.187,VALID,0,VALID,97.3663,VALID,225.089,VALID,20.4228,VALID,181,VALID,1.31016,
2010-07-15, 07:50:04,VALID,915.216,VALID,0,VALID,97.3434,VALID,189.634,VALID,20.3269,VALID,179,VALID,1.18203,
2010-07-15, 07:51:04,VALID,915.231,VALID,0,VALID,97.3053,VALID,239.916,VALID,20.2083,VALID,179,VALID,1.37656,
2010-07-15, 07:52:04,VALID,915.244,VALID,0,VALID,97.3053,VALID,257.107,VALID,20.2278,VALID,179,VALID,1.2168,
2010-07-15, 07:53:04,VALID,915.288,VALID,0,VALID,97.29,VALID,268.71,VALID,20.2473,VALID,179,VALID,0.828125,
2010-07-15, 07:54:04,VALID,915.309,VALID,0,VALID,97.2748,VALID,242.602,VALID,20.3253,VALID,179,VALID,0.755078,
2010-07-15, 07:55:04,VALID,915.314,VALID,0,VALID,97.29,VALID,243.139,VALID,20.3643,VALID,179,VALID,0.669141,
2010-07-15, 07:56:04,VALID,915.35,VALID,0,VALID,97.2824,VALID,279.562,VALID,20.4813,VALID,179,VALID,0.379687,
2010-07-15, 07:57:04,VALID,915.373,VALID,0,VALID,97.2595,VALID,250.983,VALID,20.5984,VALID,179,VALID,0.666406,
2010-07-15, 07:58:04,VALID,915.36,VALID,0,VALID,97.229,VALID,268.495,VALID,20.4423,VALID,176,VALID,0.842578,
2010-07-15, 07:59:04,VALID,915.384,VALID,0,VALID,97.1909,VALID,253.883,VALID,20.4634,VALID,142,VALID,1.07578,
2010-07-15, 08:00:04,VALID,915.422,VALID,0,VALID,97.1223,VALID,235.404,VALID,20.4018,VALID,143,VALID,0.796094,
2010-07-15, 08:01:04,VALID,915.432,VALID,0,VALID,97.0766,VALID,285.256,VALID,20.4813,VALID,146,VALID,1.27383,
2010-07-15, 08:02:04,VALID,915.452,VALID,0,VALID,96.947,VALID,275.801,VALID,20.4813,VALID,168,VALID,1.25195,
2010-07-15, 08:03:04,VALID,915.452,VALID,0,VALID,96.8555,VALID,280.959,VALID,20.5789,VALID,168,VALID,1.10664,
2010-07-15, 08:04:04,VALID,915.496,VALID,0,VALID,96.3752,VALID,265.595,VALID,20.5594,VALID,162,VALID,1.72773,
2010-07-15, 08:05:04,VALID,915.5,VALID,0,VALID,96.2533,VALID,230.569,VALID,20.6959,VALID,180,VALID,1.03906,
2010-07-15, 08:06:04,VALID,915.511,VALID,0,VALID,96.1084,VALID,281.926,VALID,20.7528,VALID,174,VALID,1.08242,
2010-07-15, 08:07:04,VALID,915.546,VALID,0,VALID,95.7882,VALID,296.86,VALID,20.8714,VALID,205,VALID,1.03437,
2010-07-15, 08:08:04,VALID,915.559,VALID,0,VALID,95.3384,VALID,247.007,VALID,21.008,VALID,206,VALID,0.883203,
2010-07-15, 08:09:04,VALID,915.55,VALID,0,VALID,94.8429,VALID,130.111,VALID,21.125,VALID,205,VALID,0.654297,
2010-07-15, 08:10:04,VALID,915.604,VALID,0,VALID,94.2864,VALID,138.492,VALID,21.2015,VALID,205,VALID,0.566406,
2010-07-15, 08:11:04,VALID,915.596,VALID,0,VALID,93.3411,VALID,153.963,VALID,21.2405,VALID,205,VALID,0.403906,
2010-07-15, 08:12:04,VALID,915.597,VALID,0,VALID,92.4873,VALID,185.658,VALID,21.26,VALID,205,VALID,0.612109,
2010-07-15, 08:13:04,VALID,915.632,VALID,0,VALID,91.9994,VALID,173.088,VALID,21.3185,VALID,205,VALID,0.232422,
2010-07-15, 08:14:04,VALID,915.626,VALID,0,VALID,91.42,VALID,204.783,VALID,21.377,VALID,205,VALID,0.405469,
2010-07-15, 08:15:04,VALID,915.599,VALID,0,VALID,91.1837,VALID,235.941,VALID,21.4355,VALID,205,VALID,0.486719,
2010-07-15, 08:16:04,VALID,915.615,VALID,0,VALID,91.5039,VALID,315.017,VALID,21.5526,VALID,205,VALID,0.075,
2010-07-15, 08:17:04,VALID,915.614,VALID,0,VALID,90.0173,VALID,283,VALID,21.6501,VALID,130,VALID,0.990625,
2010-07-15, 08:18:04,VALID,915.639,VALID,0,VALID,90.0402,VALID,282.14,VALID,21.668,VALID,130,VALID,0.853516,
2010-07-15, 08:19:04,VALID,915.638,VALID,0,VALID,88.8433,VALID,341.878,VALID,21.7087,VALID,130,VALID,0.471484,
2010-07-15, 08:20:04,VALID,915.635,VALID,0,VALID,88.4469,VALID,350.795,VALID,21.7655,VALID,130,VALID,0.497266,
2010-07-15, 08:21:04,VALID,915.622,VALID,0,VALID,87.7074,VALID,357.564,VALID,21.8664,VALID,130,VALID,0.418359,
2010-07-15, 08:22:04,VALID,915.615,VALID,0,VALID,88.0962,VALID,358.639,VALID,21.9233,VALID,130,VALID,0.569531,
2010-07-15, 08:23:04,VALID,915.626,VALID,0,VALID,86.2513,VALID,350.043,VALID,22.0777,VALID,130,VALID,0.795703,
2010-07-15, 08:24:04,VALID,915.624,VALID,0,VALID,85.1917,VALID,355.738,VALID,22.1752,VALID,130,VALID,0.529297,
2010-07-15, 08:25:04,VALID,915.624,VALID,0,VALID,84.6199,VALID,350.258,VALID,22.2745,VALID,130,VALID,0.495703,
2010-07-15, 08:26:04,VALID,915.61,VALID,0,VALID,85.245,VALID,351.225,VALID,22.372,VALID,130,VALID,0.597266,
2010-07-15, 08:27:04,VALID,915.626,VALID,0,VALID,85.2984,VALID,356.919,VALID,22.4874,VALID,130,VALID,0.371484,
2010-07-15, 08:28:04,VALID,915.626,VALID,0,VALID,82.7293,VALID,370.027,VALID,22.7216,VALID,130,VALID,0.132031,
2010-07-15, 08:29:04,VALID,915.615,VALID,0,VALID,82.1957,VALID,375.829,VALID,23.0143,VALID,130,VALID,0,
2010-07-15, 08:30:04,VALID,915.621,VALID,0,VALID,81.5324,VALID,388.937,VALID,23.1509,VALID,130,VALID,0.272266,
2010-07-15, 08:31:04,VALID,915.647,VALID,0,VALID,81.8221,VALID,386.466,VALID,23.1704,VALID,130,VALID,0.0121094,
2010-07-15, 08:32:04,VALID,915.659,VALID,0,VALID,82.1118,VALID,390.119,VALID,23.1314,VALID,130,VALID,0.604688,
2010-07-15, 08:33:04,VALID,915.648,VALID,0,VALID,82.4091,VALID,392.375,VALID,23.0338,VALID,130,VALID,0.214062,
2010-07-15, 08:34:04,VALID,915.685,VALID,0,VALID,82.1804,VALID,404.409,VALID,23.0338,VALID,130,VALID,0.402734,
2010-07-15, 08:35:04,VALID,915.725,VALID,0,VALID,82.249,VALID,409.136,VALID,22.9753,VALID,130,VALID,0.302734,
2010-07-15, 08:36:04,VALID,915.73,VALID,0,VALID,81.7154,VALID,414.615,VALID,22.9575,VALID,130,VALID,0.771094,
2010-07-15, 08:37:04,VALID,915.734,VALID,0,VALID,82.9351,VALID,416.12,VALID,22.7411,VALID,130,VALID,0.685156,
2010-07-15, 08:38:04,VALID,915.755,VALID,0,VALID,84.3226,VALID,423.533,VALID,22.624,VALID,130,VALID,0.444531,
2010-07-15, 08:39:04,VALID,915.711,VALID,0,VALID,83.6441,VALID,419.558,VALID,22.6435,VALID,218,VALID,0.685547,
2010-07-15, 08:40:04,VALID,915.761,VALID,0,VALID,83.5526,VALID,177.708,VALID,22.5069,VALID,252,VALID,0.706641,
2010-07-15, 08:41:04,VALID,915.754,VALID,0,VALID,82.9351,VALID,136.88,VALID,22.3703,VALID,252,VALID,0.925,
2010-07-15, 08:42:04,VALID,915.755,VALID,0,VALID,83.9109,VALID,110.342,VALID,22.1947,VALID,252,VALID,0.807031,
2010-07-15, 08:43:04,VALID,915.79,VALID,0,VALID,85.306,VALID,109.053,VALID,22.037,VALID,252,VALID,0.607031,
2010-07-15, 08:44:04,VALID,915.786,VALID,0,VALID,85.7787,VALID,119.152,VALID,21.9199,VALID,252,VALID,0.515625,
2010-07-15, 08:45:04,VALID,915.772,VALID,0,VALID,86.4343,VALID,119.475,VALID,21.8224,VALID,252,VALID,0.617969,
2010-07-15, 08:46:04,VALID,915.769,VALID,0,VALID,86.7545,VALID,115.822,VALID,21.7867,VALID,252,VALID,0.139453,
2010-07-15, 08:47:04,VALID,915.772,VALID,0,VALID,87.3948,VALID,109.053,VALID,21.7867,VALID,252,VALID,0.278125,
2010-07-15, 08:48:04,VALID,915.803,VALID,0,VALID,86.8917,VALID,123.88,VALID,21.785,VALID,252,VALID,0.214453,
2010-07-15, 08:49:04,VALID,915.81,VALID,0,VALID,85.893,VALID,116.789,VALID,21.7655,VALID,252,VALID,0.346875,
2010-07-15, 08:50:04,VALID,915.787,VALID,0,VALID,86.419,VALID,186.088,VALID,21.7867,VALID,252,VALID,0.46875,
2010-07-15, 08:51:04,VALID,915.792,VALID,0,VALID,86.724,VALID,241.635,VALID,21.785,VALID,251,VALID,0.479688,
2010-07-15, 08:52:04,VALID,915.832,VALID,0,VALID,86.8841,VALID,148.591,VALID,21.8436,VALID,252,VALID,0.418359,
2010-07-15, 08:53:04,VALID,915.846,VALID,0,VALID,86.3962,VALID,111.094,VALID,21.9038,VALID,251,VALID,0.552734,
2010-07-15, 08:54:04,VALID,915.85,VALID,0,VALID,86.5639,VALID,109.912,VALID,21.9021,VALID,252,VALID,0.441406,
2010-07-15, 08:55:04,VALID,915.878,VALID,0,VALID,86.0912,VALID,124.739,VALID,21.9606,VALID,251,VALID,0.401172,
2010-07-15, 08:56:04,VALID,915.917,VALID,0,VALID,86.3733,VALID,155.575,VALID,22.0191,VALID,252,VALID,0.00195313,
2010-07-15, 08:57:04,VALID,915.909,VALID,0,VALID,85.7787,VALID,451.575,VALID,22.0989,VALID,252,VALID,0.5,
2010-07-15, 08:58:04,VALID,915.955,VALID,0,VALID,85.4661,VALID,548.917,VALID,22.1752,VALID,252,VALID,0.242578,
2010-07-15, 08:59:04,VALID,915.977,VALID,0,VALID,86.1294,VALID,162.881,VALID,22.333,VALID,252,VALID,0.789844,
2010-07-15, 09:00:04,VALID,915.974,VALID,0,VALID,84.6504,VALID,208.758,VALID,22.3703,VALID,252,VALID,0.373047,
2010-07-15, 09:01:04,VALID,915.988,VALID,0,VALID,83.5603,VALID,339.084,VALID,22.4874,VALID,252,VALID,0.367578,
2010-07-15, 09:02:04,VALID,915.969,VALID,0,VALID,82.9351,VALID,299.009,VALID,22.6435,VALID,252,VALID,0.220313,
2010-07-15, 09:03:04,VALID,915.988,VALID,0,VALID,81.4181,VALID,250.445,VALID,22.7784,VALID,252,VALID,0.522266,
2010-07-15, 09:04:04,VALID,915.965,VALID,0,VALID,81.2961,VALID,213.056,VALID,22.977,VALID,252,VALID,0.129688,
2010-07-15, 09:05:04,VALID,915.978,VALID,0,VALID,81.3723,VALID,158.583,VALID,23.0143,VALID,252,VALID,0.526563,
2010-07-15, 09:06:04,VALID,915.97,VALID,0,VALID,78.5898,VALID,139.351,VALID,22.9362,VALID,252,VALID,0.298828,
2010-07-15, 09:07:04,VALID,915.968,VALID,0,VALID,79.8248,VALID,139.351,VALID,22.8972,VALID,252,VALID,0.266406,
2010-07-15, 09:08:04,VALID,915.961,VALID,0,VALID,81.1818,VALID,141.178,VALID,22.9362,VALID,252,VALID,0.365625,
2010-07-15, 09:09:04,VALID,915.962,VALID,0,VALID,81.9136,VALID,138.492,VALID,23.0143,VALID,252,VALID,0.533594,
2010-07-15, 09:10:04,VALID,915.951,VALID,0,VALID,81.2275,VALID,144.079,VALID,22.9362,VALID,42,VALID,1.0582,
2010-07-15, 09:11:04,VALID,915.961,VALID,0,VALID,82.0203,VALID,305.778,VALID,22.7784,VALID,42,VALID,0.848828,
2010-07-15, 09:12:04,VALID,915.99,VALID,0,VALID,83.0876,VALID,196.295,VALID,22.7411,VALID,42,VALID,0.865625,
2010-07-15, 09:13:04,VALID,915.952,VALID,0,VALID,82.371,VALID,146.872,VALID,22.8191,VALID,42,VALID,0.129297,
2010-07-15, 09:14:04,VALID,915.975,VALID,0,VALID,82.493,VALID,154.608,VALID,22.8972,VALID,42,VALID,0.85,
2010-07-15, 09:15:04,VALID,916.005,VALID,0,VALID,82.028,VALID,153.748,VALID,22.9753,VALID,42,VALID,0.634766,
2010-07-15, 09:16:04,VALID,915.984,VALID,0,VALID,81.2122,VALID,505.618,VALID,23.0728,VALID,43,VALID,0.229297,
2010-07-15, 09:17:04,VALID,915.972,VALID,0,VALID,79.7714,VALID,159.12,VALID,23.2094,VALID,42,VALID,0.244922,
2010-07-15, 09:18:04,VALID,915.964,VALID,0,VALID,79.6113,VALID,126.566,VALID,23.3265,VALID,42,VALID,0.521094,
2010-07-15, 09:19:04,VALID,915.923,VALID,0,VALID,78.7346,VALID,199.088,VALID,23.3851,VALID,42,VALID,0.917578,
2010-07-15, 09:20:04,VALID,915.941,VALID,0,VALID,78.2162,VALID,566.215,VALID,23.3638,VALID,42,VALID,0.596875,
2010-07-15, 09:21:04,VALID,915.947,VALID,0,VALID,79.4589,VALID,613.811,VALID,23.4046,VALID,42,VALID,0.414453,
2010-07-15, 09:22:04,VALID,915.945,VALID,0,VALID,79.4055,VALID,295.141,VALID,23.5395,VALID,42,VALID,0.417578,
2010-07-15, 09:23:04,VALID,915.952,VALID,0,VALID,78.6432,VALID,311.364,VALID,23.6956,VALID,42,VALID,0.989062,
2010-07-15, 09:24:04,VALID,915.929,VALID,0,VALID,76.9813,VALID,255.925,VALID,23.7169,VALID,352,VALID,1.17383,
2010-07-15, 09:25:04,VALID,915.987,VALID,0,VALID,77.4844,VALID,421.277,VALID,23.598,VALID,352,VALID,1.18398,
2010-07-15, 09:26:04,VALID,915.973,VALID,0,VALID,78.2544,VALID,640.886,VALID,23.5412,VALID,352,VALID,0.701563,
2010-07-15, 09:27:04,VALID,915.955,VALID,0,VALID,77.8884,VALID,614.456,VALID,23.6193,VALID,352,VALID,0.675781,
2010-07-15, 09:28:04,VALID,915.975,VALID,0,VALID,79.4055,VALID,328.233,VALID,23.795,VALID,352,VALID,0.897656,
2010-07-15, 09:29:04,VALID,915.967,VALID,0,VALID,77.8808,VALID,143.971,VALID,23.8713,VALID,352,VALID,0.721484,
2010-07-15, 09:30:04,VALID,915.959,VALID,0,VALID,75.7158,VALID,118.078,VALID,24.0097,VALID,352,VALID,0.71875,
2010-07-15, 09:31:04,VALID,915.971,VALID,0,VALID,75.7081,VALID,389.904,VALID,23.9689,VALID,352,VALID,0.498437,
2010-07-15, 09:32:04,VALID,915.956,VALID,0,VALID,75.6624,VALID,431.913,VALID,23.9689,VALID,313,VALID,0.602344,
2010-07-15, 09:33:04,VALID,915.96,VALID,0,VALID,76.8212,VALID,203.171,VALID,24.0469,VALID,302,VALID,0.776172,
2010-07-15, 09:34:04,VALID,915.931,VALID,0,VALID,74.9077,VALID,499.709,VALID,24.1836,VALID,303,VALID,0.273828,
2010-07-15, 09:35:04,VALID,915.926,VALID,0,VALID,74.5113,VALID,646.796,VALID,24.2635,VALID,304,VALID,1.03984,
2010-07-15, 09:36:04,VALID,915.954,VALID,0,VALID,74.8772,VALID,594.472,VALID,24.3026,VALID,11,VALID,0.713281,
2010-07-15, 09:37:04,VALID,915.953,VALID,0,VALID,75.022,VALID,635.085,VALID,24.3416,VALID,11,VALID,0.635156,
2010-07-15, 09:38:04,VALID,915.943,VALID,0,VALID,74.2826,VALID,631.432,VALID,24.3983,VALID,11,VALID,0.402344,
2010-07-15, 09:39:04,VALID,915.972,VALID,0,VALID,72.2014,VALID,631.969,VALID,24.4569,VALID,11,VALID,0.675,
2010-07-15, 09:40:04,VALID,916.005,VALID,0,VALID,73.8175,VALID,628.638,VALID,24.4178,VALID,298,VALID,0.605078,
2010-07-15, 09:41:04,VALID,915.98,VALID,0,VALID,74.5265,VALID,631.969,VALID,24.3983,VALID,298,VALID,0.785937,
2010-07-15, 09:42:04,VALID,916.003,VALID,0,VALID,75.4871,VALID,638.2,VALID,24.4764,VALID,316,VALID,0.93125,
2010-07-15, 09:43:04,VALID,916.003,VALID,0,VALID,75.2584,VALID,647.44,VALID,24.574,VALID,352,VALID,0.585938,
2010-07-15, 09:44:04,VALID,915.983,VALID,0,VALID,73.8175,VALID,670.11,VALID,24.574,VALID,352,VALID,1.17305,
2010-07-15, 09:45:04,VALID,916.034,VALID,0,VALID,73.9395,VALID,709.649,VALID,24.3983,VALID,352,VALID,0.907422,
2010-07-15, 09:46:04,VALID,915.998,VALID,0,VALID,74.9306,VALID,553.322,VALID,24.363,VALID,352,VALID,0.125391,
2010-07-15, 09:47:04,VALID,916.007,VALID,0,VALID,75.1821,VALID,701.591,VALID,24.4392,VALID,341,VALID,0.554688,
2010-07-15, 09:48:04,VALID,915.971,VALID,0,VALID,76.7754,VALID,584.48,VALID,24.5155,VALID,327,VALID,0.81875,
2010-07-15, 09:49:04,VALID,915.967,VALID,0,VALID,75.1974,VALID,496.056,VALID,24.5545,VALID,309,VALID,0.871875,
2010-07-15, 09:50:04,VALID,915.954,VALID,0,VALID,74.6942,VALID,510.345,VALID,24.5935,VALID,309,VALID,0.511328,
2010-07-15, 09:51:04,VALID,915.943,VALID,0,VALID,75.5862,VALID,694.392,VALID,24.4569,VALID,308,VALID,0.455859,
2010-07-15, 09:52:04,VALID,915.928,VALID,0,VALID,76.6992,VALID,736.831,VALID,24.3983,VALID,261,VALID,0.684375,
2010-07-15, 09:53:04,VALID,915.928,VALID,0,VALID,76.0512,VALID,256.784,VALID,24.2421,VALID,261,VALID,0.625,
2010-07-15, 09:54:04,VALID,915.9,VALID,0,VALID,75.7768,VALID,482.196,VALID,24.1445,VALID,261,VALID,0.919141,
2010-07-15, 09:55:04,VALID,915.903,VALID,0,VALID,77.5835,VALID,623.588,VALID,24.0079,VALID,261,VALID,0.991406,
2010-07-15, 09:56:04,VALID,915.908,VALID,0,VALID,80.1678,VALID,335.002,VALID,24.0061,VALID,261,VALID,0.625781,
2010-07-15, 09:57:04,VALID,915.918,VALID,0,VALID,79.9468,VALID,698.797,VALID,24.2226,VALID,327,VALID,1.52617,
2010-07-15, 09:58:05,VALID,915.9,VALID,0,VALID,76.44,VALID,708.359,VALID,24.4355,VALID,38,VALID,1.39414,
2010-07-15, 09:59:04,VALID,915.946,VALID,0,VALID,77.6445,VALID,720.93,VALID,24.6716,VALID,38,VALID,1.04062,
2010-07-15, 10:00:04,VALID,915.925,VALID,0,VALID,77.0499,VALID,706.64,VALID,24.9078,VALID,38,VALID,0.833203,
2010-07-15, 10:01:04,VALID,915.928,VALID,0,VALID,73.1848,VALID,746.501,VALID,25.1207,VALID,38,VALID,0.753906,
2010-07-15, 10:02:04,VALID,915.988,VALID,0,VALID,74.7019,VALID,777.444,VALID,25.1598,VALID,38,VALID,0.980859,
2010-07-15, 10:03:04,VALID,915.959,VALID,0,VALID,72.6969,VALID,768.204,VALID,25.2379,VALID,38,VALID,1.27383,
2010-07-15, 10:04:05,VALID,915.948,VALID,0,VALID,74.9687,VALID,193.824,VALID,25.2183,VALID,39,VALID,0.348047,
2010-07-15, 10:05:05,VALID,915.99,VALID,0,VALID,73.2915,VALID,202.312,VALID,25.2379,VALID,38,VALID,0.775391,
2010-07-15, 10:06:05,VALID,915.955,VALID,0,VALID,73.4135,VALID,231.965,VALID,25.1012,VALID,38,VALID,0.503125,
2010-07-15, 10:07:05,VALID,915.907,VALID,0,VALID,73.4592,VALID,230.569,VALID,24.984,VALID,39,VALID,0.367578,
2010-07-15, 10:08:05,VALID,915.916,VALID,0,VALID,74.4579,VALID,193.179,VALID,24.8669,VALID,38,VALID,0.211719,
2010-07-15, 10:09:05,VALID,915.934,VALID,0,VALID,76.6458,VALID,495.196,VALID,24.7888,VALID,38,VALID,0.401953,
2010-07-15, 10:10:05,VALID,915.921,VALID,0,VALID,76.5925,VALID,222.188,VALID,24.8474,VALID,38,VALID,0.442969,
2010-07-15, 10:11:05,VALID,915.949,VALID,0,VALID,75.6548,VALID,329.092,VALID,24.7497,VALID,38,VALID,0.464844,
2010-07-15, 10:12:05,VALID,915.943,VALID,0,VALID,76.0512,VALID,843.735,VALID,24.7302,VALID,38,VALID,0.257422,
2010-07-15, 10:13:05,VALID,915.947,VALID,0,VALID,75.7234,VALID,291.918,VALID,24.6698,VALID,38,VALID,0.566016,
2010-07-15, 10:14:05,VALID,915.94,VALID,0,VALID,76.0893,VALID,225.197,VALID,24.6735,VALID,309,VALID,1.20234,
2010-07-15, 10:15:05,VALID,915.945,VALID,0,VALID,74.8848,VALID,244.644,VALID,24.4178,VALID,246,VALID,0.692969,
2010-07-15, 10:16:05,VALID,915.937,VALID,0,VALID,75.8682,VALID,235.189,VALID,24.3007,VALID,246,VALID,0.711328,
2010-07-15, 10:17:05,VALID,915.923,VALID,0,VALID,77.8579,VALID,770.246,VALID,24.2598,VALID,246,VALID,0.754687,
2010-07-15, 10:18:05,VALID,915.924,VALID,0,VALID,78.3992,VALID,741.559,VALID,24.3202,VALID,246,VALID,0.678516,
2010-07-15, 10:19:05,VALID,915.922,VALID,0,VALID,79.1616,VALID,744.567,VALID,24.5545,VALID,7,VALID,0.861719,
2010-07-15, 10:20:05,VALID,915.915,VALID,0,VALID,75.8911,VALID,739.625,VALID,24.8864,VALID,9,VALID,1.62422,
2010-07-15, 10:21:05,VALID,915.939,VALID,0,VALID,76.2265,VALID,784.32,VALID,25.1598,VALID,51,VALID,1.21836,
2010-07-15, 10:22:05,VALID,915.942,VALID,0,VALID,73.2229,VALID,235.404,VALID,25.3746,VALID,52,VALID,0.667969,
2010-07-15, 10:23:05,VALID,915.923,VALID,0,VALID,73.5888,VALID,783.891,VALID,25.2379,VALID,51,VALID,0.996875,
2010-07-15, 10:24:05,VALID,915.941,VALID,0,VALID,73.4897,VALID,640.886,VALID,25.316,VALID,51,VALID,0.554297,
2010-07-15, 10:25:05,VALID,915.952,VALID,0,VALID,71.5915,VALID,746.501,VALID,25.3355,VALID,51,VALID,0.540625,
2010-07-15, 10:26:05,VALID,915.924,VALID,0,VALID,72.209,VALID,733.608,VALID,25.2593,VALID,301,VALID,0.930078,
2010-07-15, 10:27:05,VALID,915.922,VALID,0,VALID,72.1709,VALID,738.013,VALID,25.3355,VALID,305,VALID,0.647266,
2010-07-15, 10:28:05,VALID,915.9,VALID,0,VALID,74.7705,VALID,747.683,VALID,25.5113,VALID,331,VALID,1.0875,
2010-07-15, 10:29:05,VALID,915.885,VALID,0,VALID,75.0906,VALID,759.179,VALID,25.7261,VALID,4,VALID,0.582812,
2010-07-15, 10:30:05,VALID,915.889,VALID,0,VALID,69.0453,VALID,773.684,VALID,25.8823,VALID,4,VALID,0.961328,
2010-07-15, 10:31:05,VALID,915.865,VALID,0,VALID,68.7556,VALID,789.478,VALID,25.978,VALID,4,VALID,0.764063,
2010-07-15, 10:32:05,VALID,915.859,VALID,0,VALID,68.687,VALID,791.089,VALID,26.1538,VALID,4,VALID,0.646875,
2010-07-15, 10:33:05,VALID,915.862,VALID,0,VALID,70.1888,VALID,793.56,VALID,26.271,VALID,4,VALID,0.65,
2010-07-15, 10:34:05,VALID,915.824,VALID,0,VALID,68.5955,VALID,818.057,VALID,26.5444,VALID,4,VALID,0.217187,
2010-07-15, 10:35:05,VALID,915.831,VALID,0,VALID,66.7887,VALID,862.538,VALID,26.6421,VALID,4,VALID,1.15781,